Tracking 29510 objects as of 15-Sep-2024
HD Live streaming from Space Station
objects crossing your sky now

STARLINK-5009

Track STARLINK-5009 now!
10-day predictions
STARLINK-5009 is classified as:


NORAD ID: 53928
Int'l Code: 2022-119AU
Perigee: 544.9 km
Apogee: 548.9 km
Inclination: 53.2 °
Period: 95.4 minutes
Semi major axis: 6917 km
RCS: Unknown
Launch date: September 24, 2022
Source: United States (US)
Launch site: AIR FORCE EASTERN TEST RANGE (AFETR)
Your satellite tracking list
Your tracking list is empty




NASA's NSSDC Master Catalog

Two Line Element Set (TLE):
1 53928U 22119AU  24259.28355792 -.00000310  00000-0 -13321-5 0  9996
2 53928  53.2156 209.9950 0002858  91.7888 268.3431 15.08835186109966
Source of the keplerian elements: AFSPC